Regional Weather Roundup
Issued by NWS

Home | Current Version | Previous Version | Graphics & Text | Print | Product List | Glossary On
Versions: 1 2 3 4 5 6 7 8 9 10 11 12 13 14 15 16 17 18 19 20 21 22 23 24 25 26 27 28 29 30 31 32 33 34 35 36 37 38 39 40 41 42 43 44 45 46 47 48 49 50
000
ASUS43 KFSD 032002
RWRSD

WEATHER ROUNDUP FOR SOUTH DAKOTA
NATIONAL WEATHER SERVICE SIOUX FALLS SD
300 PM CDT FRI JUL 03 2015

NOTE: "FAIR" INDICATES FEW OR NO CLOUDS BELOW 12,000 FEET WITH NO
SIGNIFICANT WEATHER AND/OR OBSTRUCTIONS TO VISIBILITY.


SDZ001>005-009-010-012>017-032100-
NORTHWEST AND NORTH CENTRAL SOUTH DAKOTA

CITY           SKY/WX    TMP DP  RH WIND       PRES   REMARKS
BUFFALO          N/A     84  56  38 S9        29.95F
FAITH            N/A     82  60  47 SW9       30.00F
MOBRIDGE       MOSUNNY   83  66  56 N8        29.95F HAZE
$$

SDZ012>016-024>037-041>051-057-063-072>074-032100-
SOUTHWEST AND SOUTH CENTRAL SOUTH DAKOTA

CITY           SKY/WX    TMP DP  RH WIND       PRES   REMARKS
RAPID CTY ARPT SUNNY     79  60  52 SE9       30.03F
PIERRE         MOSUNNY   78  64  61 VRB3      29.97F HAZE
CUSTER         CLOUDY    67  57  70 SE6       30.16F
ELLSWORTH AFB  SUNNY     80  62  53 SE10      30.03F
PHILIP         SUNNY     82  62  50 VRB3      30.00F HAZE
PINE RIDGE     SUNNY     80  57  45 NW6       30.05F
WINNER         FAIR      83  53  35 VRB5      29.99F
$$

SDZ004>011-016>023-039-040-032100-
NORTHEAST SOUTH DAKOTA

CITY           SKY/WX    TMP DP  RH WIND       PRES   REMARKS
ABERDEEN       PTSUNNY   82  64  54 VRB3      29.95F HAZE
WATERTOWN      MOSUNNY   80  64  58 W8        29.97S
BROOKINGS      MOSUNNY   77  64  65 W6        29.99F
SISSETON         N/A     82  62  50 N8        29.93F
$$

SDZ017-020-022-023-036>040-048>070-032100-
SOUTHEAST SOUTH DAKOTA

CITY           SKY/WX    TMP DP  RH WIND       PRES   REMARKS
SIOUX FALLS    CLOUDY    76  63  64 NW7       29.99F
HURON          SUNNY     80  66  62 CALM      29.95F
CHAMBERLAIN    MOSUNNY   80  62  54 CALM      29.98F
MITCHELL       MOSUNNY   80  67  64 CALM      29.98F
YANKTON        PTSUNNY   75  61  60 W5        29.98S
$$

ABBREVIATIONS USED IN REMARKS
   TC - TEMPERATURE IN CELSIUS
  WCI - WIND CHILL INDEX
   HX - HEAT INDEX
  VSB - VISIBILITY



USA.gov is the U.S. government's official web portal to all federal, state and local government web resources and services.